Location: Basse Occidentale du Courleau
(48.3833°N, 4.8333°W)
Time: 04:17:01
(UTC+00:00)

Cosmos 1315 Rocket - Pass Details

Date: 05 July 2020
Orbit: 530 x 568 km, 81.2° (Epoch: 11 August)

Event Time Altitude Azimuth Distance (km) Brightness Sun altitude
Rises 22:21:23 0° 344° (NNW) 2,753 8.1 -13.8°
Reaches altitude 10° 22:23:35 10° 341° (NNW) 1,859 6.9 -14.0°
Maximum altitude 22:27:37 57° 263° (W) 669 3.3 -14.3°
Enters shadow 22:30:23 19° 189° (S) 1,368 4.4 -14.5°
